When you browse on this site, cookies collect data to enhance your experience and personalize the content and advertising you see.
Visit our Privacy Policy to learn more. By continuing to use the site, you agree to this use of cookies and data.
  • In Slovakia
  • List of Countries
  • For 7 days
  • Water Temperature
  • Weather Map
  • Weather Widgets
  • user-avatar
    Login

    Hourly Weather Algiers

    Today, 29 May, Friday

    Time Temperature Precipitation Wind Pressure Humidity
    00:00 +21°C° 0.3 mm 6 mps 750 mmHg 73%
    01:00 +21°C° 0.5 mm 5 mps 749 mmHg 75%
    02:00 +20°C° 0.5 mm 4 mps 749 mmHg 77%
    03:00 +20°C° 0.5 mm 3 mps 749 mmHg 79%
    04:00 +21°C° 0.4 mm 3 mps 749 mmHg 78%
    05:00 +21°C° 0.4 mm 3 mps 749 mmHg 77%
    06:00 +21°C° 0.4 mm 3 mps 749 mmHg 76%
    07:00 +22°C° 0 mm 4 mps 749 mmHg 72%
    08:00 +23°C° 0 mm 4 mps 749 mmHg 68%
    09:00 +25°C° 0 mm 4 mps 749 mmHg 65%
    10:00 +26°C° 0 mm 5 mps 748 mmHg 64%
    11:00 +26°C° 0 mm 5 mps 748 mmHg 64%
    12:00 +26°C° 0 mm 6 mps 748 mmHg 64%
    13:00 +26°C° 0.1 mm 6 mps 747 mmHg 65%
    14:00 +24°C° 0.1 mm 6 mps 747 mmHg 65%
    15:00 +24°C° 0.1 mm 6 mps 747 mmHg 66%
    16:00 +23°C° 0.1 mm 6 mps 746 mmHg 68%
    17:00 +23°C° 0.1 mm 5 mps 746 mmHg 70%
    18:00 +22°C° 0.1 mm 5 mps 745 mmHg 73%
    19:00 +21°C° 0 mm 5 mps 746 mmHg 76%
    20:00 +21°C° 0 mm 5 mps 746 mmHg 79%
    21:00 +20°C° 0 mm 4 mps 747 mmHg 82%
    22:00 +20°C° 0 mm 4 mps 746 mmHg 83%
    23:00 +20°C° 0 mm 4 mps 746 mmHg 85%

    Tomorrow, 30 May, Saturday

    Time Temperature Precipitation Wind Pressure Humidity
    00:00 +19°C° 0 mm 4 mps 746 mmHg 86%
    01:00 +19°C° 0 mm 4 mps 746 mmHg 87%
    02:00 +19°C° 0 mm 4 mps 746 mmHg 88%
    03:00 +19°C° 0 mm 4 mps 746 mmHg 89%
    04:00 +19°C° 0 mm 4 mps 746 mmHg 88%
    05:00 +19°C° 0 mm 4 mps 747 mmHg 87%
    06:00 +19°C° 0 mm 4 mps 747 mmHg 86%
    07:00 +20°C° 0 mm 4 mps 747 mmHg 80%
    08:00 +22°C° 0 mm 4 mps 747 mmHg 74%
    09:00 +23°C° 0 mm 4 mps 747 mmHg 68%
    10:00 +23°C° 0 mm 5 mps 747 mmHg 64%
    11:00 +25°C° 0 mm 5 mps 747 mmHg 60%
    12:00 +26°C° 0 mm 6 mps 747 mmHg 56%
    13:00 +26°C° 0 mm 6 mps 747 mmHg 56%
    14:00 +24°C° 0 mm 6 mps 747 mmHg 57%
    15:00 +24°C° 0 mm 6 mps 747 mmHg 57%
    16:00 +24°C° 0 mm 6 mps 746 mmHg 60%
    17:00 +23°C° 0 mm 6 mps 746 mmHg 64%
    18:00 +22°C° 0 mm 6 mps 746 mmHg 67%
    19:00 +21°C° 0 mm 6 mps 746 mmHg 69%
    20:00 +21°C° 0 mm 5 mps 747 mmHg 71%
    21:00 +20°C° 0 mm 5 mps 747 mmHg 72%
    22:00 +20°C° 0 mm 5 mps 747 mmHg 69%
    23:00 +20°C° 0 mm 4 mps 747 mmHg 66%

    Day after tomorrow, 31 May, Sunday

    Time Temperature Precipitation Wind Pressure Humidity
    00:00 +20°C° 0 mm 4 mps 747 mmHg 64%
    01:00 +20°C° 0 mm 4 mps 747 mmHg 62%
    02:00 +20°C° 0 mm 4 mps 747 mmHg 61%
    03:00 +20°C° 0 mm 4 mps 746 mmHg 59%
    04:00 +20°C° 0 mm 4 mps 746 mmHg 57%
    05:00 +21°C° 0 mm 4 mps 746 mmHg 55%
    06:00 +21°C° 0 mm 4 mps 746 mmHg 53%
    07:00 +23°C° 0 mm 5 mps 746 mmHg 47%
    08:00 +26°C° 0 mm 5 mps 746 mmHg 41%
    09:00 +27°C° 0 mm 6 mps 746 mmHg 36%
    10:00 +28°C° 0 mm 6 mps 746 mmHg 36%
    11:00 +29°C° 0 mm 7 mps 746 mmHg 37%
    12:00 +31°C° 0 mm 8 mps 746 mmHg 38%
    13:00 +29°C° 0 mm 8 mps 745 mmHg 39%
    14:00 +28°C° 0 mm 8 mps 745 mmHg 41%
    15:00 +28°C° 0 mm 8 mps 744 mmHg 42%
    16:00 +27°C° 0 mm 8 mps 744 mmHg 45%
    17:00 +27°C° 0 mm 7 mps 744 mmHg 48%
    18:00 +26°C° 0 mm 7 mps 744 mmHg 50%
    19:00 +24°C° 0.1 mm 6 mps 744 mmHg 54%
    20:00 +25°C° 0.1 mm 5 mps 745 mmHg 58%
    21:00 +23°C° 0.1 mm 4 mps 746 mmHg 61%
    22:00 +23°C° 0 mm 4 mps 746 mmHg 62%
    23:00 +24°C° 0 mm 3 mps 745 mmHg 63%

    1 June, Monday

    Time Temperature Precipitation Wind Pressure Humidity
    00:00 +22°C° 0 mm 3 mps 745 mmHg 64%
    01:00 +22°C° 0 mm 3 mps 745 mmHg 66%
    02:00 +23°C° 0 mm 2 mps 745 mmHg 67%
    03:00 +23°C° 0 mm 2 mps 745 mmHg 69%
    04:00 +23°C° 0 mm 2 mps 746 mmHg 71%
    05:00 +21°C° 0 mm 3 mps 746 mmHg 73%
    06:00 +21°C° 0 mm 3 mps 746 mmHg 75%
    07:00 +22°C° 0 mm 3 mps 747 mmHg 71%
    08:00 +24°C° 0 mm 2 mps 747 mmHg 66%
    09:00 +25°C° 0 mm 2 mps 747 mmHg 61%
    10:00 +26°C° 0 mm 2 mps 747 mmHg 59%
    11:00 +27°C° 0 mm 3 mps 747 mmHg 57%
    12:00 +27°C° 0 mm 3 mps 747 mmHg 55%
    13:00 +27°C° 0 mm 3 mps 747 mmHg 56%
    14:00 +27°C° 0 mm 3 mps 747 mmHg 56%
    15:00 +27°C° 0 mm 3 mps 747 mmHg 57%
    16:00 +26°C° 0 mm 3 mps 746 mmHg 59%
    17:00 +26°C° 0 mm 2 mps 746 mmHg 60%
    18:00 +26°C° 0 mm 2 mps 746 mmHg 61%
    19:00 +25°C° 0 mm 2 mps 746 mmHg 63%
    20:00 +24°C° 0 mm 2 mps 747 mmHg 65%
    21:00 +24°C° 0 mm 1 mps 747 mmHg 67%
    22:00 +23°C° 0 mm 2 mps 747 mmHg 67%
    23:00 +22°C° 0 mm 3 mps 746 mmHg 68%

    2 June, Tuesday

    Time Temperature Precipitation Wind Pressure Humidity
    00:00 +21°C° 0 mm 4 mps 746 mmHg 68%
    01:00 +21°C° 0 mm 3 mps 746 mmHg 68%
    02:00 +21°C° 0 mm 3 mps 746 mmHg 69%
    03:00 +21°C° 0 mm 2 mps 746 mmHg 69%
    04:00 +23°C° 0 mm 2 mps 746 mmHg 67%
    05:00 +23°C° 0 mm 2 mps 746 mmHg 65%
    06:00 +24°C° 0 mm 1 mps 746 mmHg 63%
    07:00 +25°C° 0 mm 1 mps 747 mmHg 58%
    08:00 +26°C° 0 mm 1 mps 747 mmHg 53%
    09:00 +27°C° 0 mm 1 mps 747 mmHg 48%
    10:00 +28°C° 0 mm 2 mps 747 mmHg 46%
    11:00 +28°C° 0 mm 2 mps 747 mmHg 45%
    12:00 +29°C° 0 mm 2 mps 747 mmHg 44%
    13:00 +28°C° 0 mm 3 mps 746 mmHg 44%
    14:00 +28°C° 0 mm 3 mps 746 mmHg 44%
    15:00 +28°C° 0 mm 3 mps 745 mmHg 44%
    16:00 +27°C° 0 mm 3 mps 745 mmHg 46%
    17:00 +27°C° 0 mm 3 mps 745 mmHg 48%
    18:00 +26°C° 0 mm 3 mps 745 mmHg 50%
    19:00 +26°C° 0 mm 3 mps 745 mmHg 52%
    20:00 +25°C° 0 mm 3 mps 745 mmHg 53%
    21:00 +25°C° 0 mm 3 mps 745 mmHg 54%
    22:00 +24°C° 0 mm 2 mps 744 mmHg 54%
    23:00 +24°C° 0 mm 2 mps 744 mmHg 54%

    3 June, Wednesday

    Time Temperature Precipitation Wind Pressure Humidity
    00:00 +24°C° 0 mm 2 mps 744 mmHg 54%
    01:00 +24°C° 0 mm 1 mps 743 mmHg 53%
    02:00 +24°C° 0 mm 1 mps 743 mmHg 53%
    03:00 +24°C° 0 mm 1 mps 743 mmHg 53%
    04:00 +24°C° 0 mm 1 mps 743 mmHg 52%
    05:00 +25°C° 0 mm 1 mps 743 mmHg 52%
    06:00 +25°C° 0 mm 1 mps 743 mmHg 51%
    07:00 +26°C° 0 mm 2 mps 743 mmHg 48%
    08:00 +27°C° 0 mm 2 mps 743 mmHg 46%
    09:00 +28°C° 0 mm 3 mps 743 mmHg 43%
    10:00 +29°C° 0 mm 3 mps 743 mmHg 42%
    11:00 +29°C° 0 mm 3 mps 743 mmHg 41%
    12:00 +29°C° 0 mm 3 mps 742 mmHg 41%
    13:00 +29°C° 0 mm 3 mps 742 mmHg 42%
    14:00 +28°C° 0 mm 3 mps 741 mmHg 44%
    15:00 +28°C° 0 mm 3 mps 741 mmHg 46%
    16:00 +27°C° 0 mm 3 mps 741 mmHg 50%
    17:00 +26°C° 0 mm 3 mps 741 mmHg 54%
    18:00 +25°C° 0 mm 2 mps 741 mmHg 58%
    19:00 +24°C° 0.1 mm 2 mps 741 mmHg 61%
    20:00 +24°C° 0.1 mm 2 mps 742 mmHg 63%
    21:00 +23°C° 0.1 mm 2 mps 742 mmHg 66%
    22:00 +23°C° 0 mm 2 mps 742 mmHg 66%
    23:00 +23°C° 0 mm 1 mps 742 mmHg 66%
    Show more